Regional Weather Roundup
Issued by NWS

Home | Current Version | Previous Version | Text Only | Print | Product List | Glossary Off
Versions: 1 2 3 4 5 6 7 8 9 10 11 12 13 14 15 16 17 18 19 20 21 22 23 24 25 26 27 28 29 30 31 32 33 34 35 36 37 38 39 40 41 42 43 44 45 46 47 48 49 50

000
ASUS43 KIND 191509
RWRIN

WEATHER ROUNDUP FOR INDIANA
NATIONAL WEATHER SERVICE INDIANAPOLIS IN
1000 AM EST FRI DEC 19 2014

NOTE: "FAIR" INDICATES FEW OR NO CLOUDS BELOW 12,000 FEET WITH NO
SIGNIFICANT WEATHER AND/OR OBSTRUCTIONS TO VISIBILITY.

* - STATION DOES NOT REPORT WEATHER SUCH AS PRECIPITATION OR FOG.

+ - STATION NOT QUALITY CONTROLLED BY THE NATIONAL WEATHER SERVICE.
    USE DATA WITH CAUTION...ESPECIALLY DEWPOINT AND RELATIVE
    HUMIDITY OBSERVATIONS.

INZ001>003-010>013-019-020-191600-
NORTHWEST INDIANA

CITY           SKY/WX    TMP DP  RH WIND       PRES   REMARKS
GARY /AIRPORT/ CLOUDY    32  21  64 CALM      30.30S
KNOX *+        CLOUDY    29  23  78 W7        30.27R WCI  22
LA PORTE +     CLOUDY    33  28  80 N7        30.28R WCI  27
MICHIGAN CITY+ CLOUDY    32  21  64 NW5       30.28S WCI  27
MONTICELLO +   CLOUDY    26  24  90 W3        30.30R
RENSSELAER +   CLOUDY    28  28 100 W3        30.30R
VALPARAISO     CLOUDY    30  23  75 NW7       30.28S WCI  23

$$

LMZ046-743>745-191600-
SOUTHERN LAKE MICHIGAN

STATION/POSITION TIME  TEMP WIND        PRES
                       AIR  DIR/SP/G
                 (UTC) (F)  (DEG/KT/KT) (MB)

$$

INZ004-005-014>016-021>024-191600-
NORTH CENTRAL INDIANA

CITY           SKY/WX    TMP DP  RH WIND       PRES   REMARKS
GOSHEN         SUNNY     29  25  85 NW3       30.26S
LOGANSPORT +   CLOUDY    28  23  80 SW6       30.31R HAZE    WCI  22
PERU/GRISSOM   FLURRIES  27  27 100 W5        30.29R WCI  21
ROCHESTER +    PTSUNNY   30  28  93 W3        30.29R FOG
SOUTH BEND     CLOUDY    31  24  75 N3        30.28
WARSAW +       CLOUDY    28  27  93 CALM      30.26S FOG

$$

INZ006>009-017-018-025>027-191600-
NORTHEAST INDIANA

CITY           SKY/WX    TMP DP  RH WIND       PRES   REMARKS
ANGOLA *+      CLOUDY    27  25  93 NW6       30.25R WCI  20
AUBURN +       PTSUNNY   28  25  86 NW3       30.26S FOG
FORT WAYNE     PTSUNNY   28  23  81 W6        30.28R WCI  22
HUNTINGTON +   CLOUDY    27  23  86 CALM      30.28R

$$

INZ028-029-035-036-043>045-051>053-191600-
WEST CENTRAL INDIANA

CITY           SKY/WX    TMP DP  RH WIND       PRES   REMARKS
CRAWFORDSVL +  CLOUDY    23  18  80 CALM      30.31
GREENCASTLE +  SUNNY     27  18  69 N3        30.31R
LAFAYETTE      CLOUDY    24  21  88 CALM      30.32R
TERRE HAUTE    SUNNY     27  20  75 NE5       30.33S WCI  22

$$

INZ030>032-037>040-046>048-054>057-064-065-191600-
CENTRAL INDIANA

CITY           SKY/WX    TMP DP  RH WIND       PRES   REMARKS
ANDERSON       CLOUDY    27  19  74 CALM      30.31R
CP ATTERBURY + CLOUDY    27  25  93 MISG      30.31F
COLUMBUS       MOSUNNY   25  25 100 CALM      30.32S
FRANKFORT +    PTSUNNY   26  23  89 W3        30.32R
INDIANAPOLIS   CLOUDY    23  19  85 NW3       30.30R
-EAGLE CREEK   CLOUDY    25  20  81 CALM      30.30R
KOKOMO *+      CLOUDY    27  21  80 W7        30.30R WCI  19
MARION +       CLOUDY    26  23  89 W5        30.30R WCI  20
MT COMFORT *+  CLOUDY    27  19  74 CALM      30.30S
SHELBYVILLE    CLOUDY    26  21  81 NW3       30.30R
ZIONSVILLE +   CLOUDY    26  20  77 CALM      30.31R

$$

INZ033-034-041-042-049-050-058-059-191600-
EAST CENTRAL INDIANA

CITY           SKY/WX    TMP DP  RH WIND       PRES   REMARKS
MUNCIE         CLOUDY    27  21  78 SW6       30.29R WCI  20

$$

INZ060-061-067>069-081>083-085>088-191600-
SOUTHWEST INDIANA

CITY           SKY/WX    TMP DP  RH WIND       PRES   REMARKS
EVANSVILLE     SUNNY     32  24  72 NE8       30.34R WCI  25
HUNTINGBURG *+ SUNNY     28  21  74 NE6       30.34R WCI  22
WASHINGTON +   SUNNY     28  22  75 NE3       30.33R

$$

INZ062-063-066-070>080-084-089>092-191600-
SOUTH CENTRAL AND SOUTHEAST INDIANA

CITY           SKY/WX    TMP DP  RH WIND       PRES   REMARKS
BLOOMINGTON    SUNNY     28  22  78 N5        30.29F WCI  23

$$




USA.gov is the U.S. government's official web portal to all federal, state and local government web resources and services.